User: anonymous   Login
Location: Unspecified
(0.0000°N, 0.0000°E)
Time: 17:10:03
(UTC+00:00)
Language:

CZ-11 DEB - Orbit

View from above orbital plane
View from above orbital plane
View from above satellite
View from above satellite

Ground track
Ground track

The orbit is defined by the following mean orbital elements,

1 41846U          26087.82778278 +.00000000 +00000-0 +37100-3 0 00002
2 41846  98.4211 177.3609 0307417 351.0616   8.5179 14.54322500    03
Epoch (UTC): 28 March 2026 19:52:00
Eccentricity: 0.0307417
inclination: 98.4211°
perigee height: 494 km
apogee height: 930 km
right ascension of ascending node: 177.3609°
argument of perigee: 351.0616°
revolutions per day: 14.54322500
mean anomaly at epoch: 8.5179°

The dashed part of the orbit path shows where the satellite is in the earth's shadow,  

DLR